Date String (YYYY-MM-DD hh:mm:ss) UTC,Instrument flags,Ambient pressure (hPa),Sample flow (lpm),Bypass flow (lpm),Sample temperature (°C),Ambient temperature (°C),ASC tube jacket temperature (°C),LED temperature (°C),Box temperature (°C),Sample RH (%),Span deviation,Mass concentration (μg/m³),Mass concentration (μg/m³),Mass concentration (μg/m³)
DateTimeUTC,F1_M11,P_M11,Q1_M11,Q2_M11,T1_M11,T2_M11,T3_M11,T4_M11,T5_M11,U1_M11,ZSPAN_M11,X0_M11,X2_M11,X1_M11
2022-06-14 07:00:00,,0818.0,4.99,0.00,29.3,28.3,00.0,38.3,31.1,16.8,0004.9,0045.81,0013.00,0004.00
2022-06-14 07:01:00,,0818.1,5.00,0.00,29.2,28.3,00.0,38.3,31.0,16.8,0004.6,0045.47,0012.95,0003.98
2022-06-14 07:02:00,,0818.0,5.00,0.00,29.2,28.3,00.0,38.3,31.0,16.8,0004.9,0044.54,0012.83,0003.94
2022-06-14 07:03:00,,0818.0,5.01,0.00,29.2,28.2,00.0,38.3,31.0,16.8,0005.2,0044.03,0012.75,0003.91
2022-06-14 07:04:00,,0818.0,4.99,0.00,29.2,28.2,00.0,38.3,31.0,16.9,0005.0,0043.89,0012.55,0003.88
2022-06-14 07:05:00,,0818.0,4.99,0.00,29.2,28.2,00.0,38.3,31.0,16.9,0004.8,0045.02,0012.52,0003.86
2022-06-14 07:06:00,,0818.0,4.99,0.00,29.2,28.2,00.0,38.3,31.0,16.9,0000.0,0044.93,0012.46,0003.84
2022-06-14 07:07:00,,0818.1,4.99,0.00,29.1,28.2,00.0,38.2,30.9,16.8,0002.1,0044.46,0012.41,0003.78
2022-06-14 07:08:00,,0818.1,5.01,0.00,29.1,28.1,00.0,38.2,30.9,16.8,0005.1,0043.06,0012.39,0003.76
2022-06-14 07:09:00,,0818.0,5.00,0.00,29.1,28.1,00.0,38.2,30.9,16.9,0005.9,0042.68,0012.27,0003.74
2022-06-14 07:10:00,,0818.0,5.00,0.00,29.1,28.1,00.0,38.2,30.9,16.9,0005.2,0041.97,0012.26,0003.73
2022-06-14 07:11:00,,0818.0,5.00,0.00,29.1,28.1,00.0,38.2,30.9,16.9,0004.8,0040.73,0012.04,0003.69
2022-06-14 07:12:00,,0818.0,5.01,0.00,29.1,28.1,00.0,38.2,30.9,16.9,0004.3,0040.51,0012.14,0003.69
2022-06-14 07:13:00,,0818.0,5.00,0.00,29.1,28.1,00.0,38.2,30.8,16.9,0003.9,0040.55,0012.00,0003.69
2022-06-14 07:14:00,,0818.0,4.99,0.00,29.0,28.0,00.0,38.2,30.8,16.9,0000.2,0040.15,0011.93,0003.69
2022-06-14 07:15:00,,0818.0,4.99,0.00,29.0,28.0,00.0,38.1,30.8,16.9,0000.2,0039.19,0011.90,0003.70
2022-06-14 07:16:00,,0818.0,4.99,0.00,29.0,28.0,00.0,38.1,30.8,16.9,0001.6,0037.57,0011.81,0003.69
2022-06-14 07:17:00,,0818.0,5.00,0.00,29.0,28.0,00.0,38.1,30.8,16.9,-000.7,0036.75,0011.80,0003.68
2022-06-14 07:18:00,,0818.0,5.00,0.00,29.0,28.0,00.0,38.1,30.8,16.9,-000.1,0035.91,0011.72,0003.69
2022-06-14 07:19:00,,0817.9,5.01,0.00,29.0,28.0,00.0,38.1,30.8,16.8,0000.0,0035.51,0011.59,0003.68
2022-06-14 07:20:00,,0818.0,5.00,0.00,29.0,28.0,00.0,38.1,30.8,16.8,0000.0,0034.76,0011.50,0003.67
2022-06-14 07:21:00,,0818.1,4.99,0.00,29.0,28.0,00.0,38.1,30.8,16.8,0000.0,0034.46,0011.43,0003.65
2022-06-14 07:22:00,,0818.2,5.01,0.00,29.0,28.0,00.0,38.0,30.8,16.8,0000.0,0034.91,0011.49,0003.67
2022-06-14 07:23:00,,0818.2,5.01,0.00,29.0,28.0,00.0,38.0,30.8,16.8,0000.0,0034.90,0011.37,0003.68
2022-06-14 07:24:00,,0818.3,5.00,0.00,29.0,28.1,00.0,38.0,30.8,16.8,0000.0,0034.82,0011.44,0003.68
2022-06-14 07:25:00,,0818.2,5.01,0.00,29.0,28.1,00.0,38.0,30.8,16.8,0000.4,0035.41,0011.48,0003.69
2022-06-14 07:26:00,,0818.3,5.00,0.00,29.0,28.1,00.0,38.0,30.8,16.8,0002.2,0035.90,0011.36,0003.67
2022-06-14 07:27:00,,0818.4,5.00,0.00,29.0,28.1,00.0,38.0,30.8,16.8,0002.4,0035.94,0011.37,0003.67
2022-06-14 07:28:00,,0818.4,5.00,0.00,29.0,28.1,00.0,38.0,30.8,16.7,0002.2,0035.77,0011.34,0003.69
2022-06-14 07:29:00,,0818.4,4.99,0.00,29.0,28.1,00.0,38.0,30.8,16.7,0002.5,0036.40,0011.39,0003.69
2022-06-14 07:30:00,,0818.4,5.00,0.00,29.0,28.1,00.0,38.0,30.8,16.7,0003.2,0037.07,0011.50,0003.69
2022-06-14 07:31:00,,0818.4,5.01,0.00,29.0,28.1,00.0,38.0,30.8,16.7,0003.2,0038.21,0011.49,0003.70
2022-06-14 07:32:00,,0818.4,4.99,0.00,29.0,28.0,00.0,38.0,30.8,16.7,0003.6,0037.92,0011.51,0003.72
2022-06-14 07:33:00,,0818.4,4.99,0.00,29.0,28.1,00.0,38.0,30.8,16.7,0003.7,0037.87,0011.51,0003.72
2022-06-14 07:34:00,,0818.2,5.01,0.00,29.0,28.1,00.0,38.0,30.8,16.7,0003.3,0038.56,0011.57,0003.72
2022-06-14 07:35:00,,0818.1,5.00,0.00,29.0,28.1,00.0,38.0,30.8,16.7,0002.9,0039.23,0011.56,0003.73
2022-06-14 07:36:00,,0818.0,5.00,0.00,29.0,28.1,00.0,38.0,30.8,16.7,0000.0,0039.79,0011.44,0003.73
2022-06-14 07:37:00,,0817.9,5.01,0.00,29.0,28.1,00.0,38.0,30.8,16.7,0000.0,0039.31,0011.45,0003.74
2022-06-14 07:38:00,,0817.9,5.00,0.00,29.0,28.1,00.0,38.0,30.8,16.7,0001.8,0039.62,0011.43,0003.76
2022-06-14 07:39:00,,0817.8,5.01,0.00,29.0,28.0,00.0,38.0,30.8,16.8,0002.6,0041.43,0011.50,0003.76
2022-06-14 07:40:00,,0817.7,5.01,0.00,29.0,28.0,00.0,38.0,30.8,16.8,0000.0,0041.13,0011.62,0003.78
2022-06-14 07:41:00,,0817.6,5.01,0.00,29.0,28.0,00.0,38.0,30.8,16.8,0001.4,0040.48,0011.62,0003.79
2022-06-14 07:42:00,,0817.5,5.01,0.00,29.0,28.0,00.0,38.0,30.8,16.8,0000.0,0039.56,0011.68,0003.80
2022-06-14 07:43:00,,0817.6,5.00,0.00,29.0,28.1,00.0,38.0,30.8,16.8,0000.0,0039.80,0011.82,0003.82
2022-06-14 07:44:00,,0817.7,4.99,0.00,29.0,28.1,00.0,38.0,30.8,16.7,0000.0,0040.82,0011.98,0003.81
2022-06-14 07:45:00,,0817.8,5.00,0.00,29.0,28.1,00.0,38.0,30.8,16.7,0000.0,0040.68,0011.96,0003.80
2022-06-14 07:46:00,,0818.0,5.00,0.00,29.0,28.1,00.0,38.0,30.8,16.7,0001.7,0041.05,0011.96,0003.78
2022-06-14 07:47:00,,0818.0,4.99,0.00,29.0,28.1,00.0,38.0,30.8,16.7,0003.5,0039.98,0011.89,0003.76
2022-06-14 07:48:00,,0818.0,5.00,0.00,29.0,28.1,00.0,38.0,30.8,16.6,0003.9,0039.39,0011.84,0003.77
2022-06-14 07:49:00,,0818.0,5.01,0.00,29.0,28.1,00.0,38.0,30.8,16.6,0001.0,0038.92,0011.90,0003.76
2022-06-14 07:50:00,,0818.0,5.00,0.00,29.0,28.1,00.0,38.0,30.8,16.6,0000.0,0037.20,0011.87,0003.75
2022-06-14 07:51:00,,0818.0,5.00,0.00,29.0,28.1,00.0,38.0,30.8,16.6,0000.0,0036.98,0011.79,0003.73
2022-06-14 07:52:00,,0818.0,4.99,0.00,29.0,28.1,00.0,38.0,30.8,16.6,0000.0,0037.49,0011.72,0003.74
2022-06-14 07:53:00,,0817.9,4.99,0.00,29.0,28.1,00.0,38.0,30.8,16.5,0000.0,0037.49,0011.71,0003.72
2022-06-14 07:54:00,,0817.9,5.00,0.00,29.0,28.1,00.0,38.0,30.8,16.5,0000.0,0038.07,0011.58,0003.68
2022-06-14 07:55:00,,0817.9,5.00,0.00,29.0,28.1,00.0,38.0,30.8,16.5,0000.0,0036.59,0011.31,0003.65
2022-06-14 07:56:00,,0817.9,5.01,0.00,29.0,28.1,00.0,38.0,30.8,16.5,0000.0,0035.32,0011.19,0003.66
2022-06-14 07:57:00,,0817.9,4.99,0.00,29.0,28.1,00.0,38.0,30.8,16.5,0000.0,0034.19,0011.04,0003.65
2022-06-14 07:58:00,,0818.0,4.99,0.00,29.0,28.1,00.0,38.0,30.8,16.5,0000.0,0034.29,0011.15,0003.67
2022-06-14 07:59:00,,0818.0,5.01,0.00,29.0,28.1,00.0,38.0,30.8,16.5,0000.0,0035.33,0011.23,0003.66
